Hong Kong, Hong Kong

10:32 AM HKT on June 25, 2018 (GMT +0800)
Hong Kong International

Weather History for VHHH - September, 2017

Change the Weather History Date:

Thursday, September 14, 2017

  Actual Average Record
Temperature  
Mean Temperature 87 °F -  
Max Temperature 91 °F 84 °F 95 °F (2005)
Min Temperature 83 °F 76 °F 75 °F (1997)
Cooling Degree Days 22    
Growing Degree Days 37 (Base 50)    
Moisture  
Dew Point 68 °F    
Average Humidity 53    
Maximum Humidity 74    
Minimum Humidity 34    
Precipitation  
Precipitation 0.00 in - - ()
Sea Level Pressure  
Sea Level Pressure 29.77 in    
Wind  
Wind Speed 13 mph ()    
Max Wind Speed 20 mph    
Max Gust Speed -    
Visibility 6.7 miles    
Events      
Averages and records for this station are not official NWS values.
T = Trace of Precipitation, MM = Missing Value Source: Averaged Metar Reports

Daily Weather History Graph

Daily Weather History Graph

Search for Another Location

Airport or City:

Astronomy

Sep. 14, 2017 Rise Set
Actual Time 6:10 AM HKT 6:28 PM HKT
Civil Twilight 5:48 AM HKT 6:51 PM HKT
Nautical Twilight 5:22 AM HKT 7:17 PM HKT
Astronomical Twilight 4:55 AM HKT 7:43 PM HKT
Moon 12:05 AM HKT (9/14) 1:41 PM HKT (9/14)
Length of Visible Light 13h 02m
Length of Day
12h 18m
Last Quarter, 40% of the Moon is Illuminated
Sep 14
Last Quarter
Sep 20
New
Sep 28
First Quarter
Oct 6
Full
Oct 12
Last Quarter

Hourly Weather History & Observations

Time (HKT) Temp. Heat Index Dew Point Humidity Pressure Visibility Wind Dir Wind Speed Gust Speed Precip Events Conditions
12:00 AM 86.0 °F 96.9 °F 77.0 °F 74% 29.80 in 6.2 mi East 12.7 mph - N/A   Scattered Clouds
12:30 AM 86.0 °F 96.9 °F 77.0 °F 74% 29.80 in 6.2 mi East 16.1 mph - N/A   Scattered Clouds
1:00 AM 86.0 °F 96.9 °F 77.0 °F 74% 29.80 in 6.2 mi East 11.5 mph - N/A   Scattered Clouds
1:30 AM 86.0 °F 95.1 °F 75.2 °F 70% 29.77 in 6.2 mi East 13.8 mph - N/A   Scattered Clouds
2:00 AM 84.2 °F 92.3 °F 75.2 °F 74% 29.77 in 6.2 mi East 12.7 mph - N/A   Scattered Clouds
2:30 AM 84.2 °F 90.9 °F 73.4 °F 70% 29.77 in 6.2 mi East 17.3 mph - N/A   Scattered Clouds
3:00 AM 84.2 °F 89.6 °F 71.6 °F 66% 29.77 in 6.2 mi East 15.0 mph - N/A   Partly Cloudy
3:30 AM 84.2 °F 88.4 °F 69.8 °F 62% 29.77 in 6.2 mi East 13.8 mph - N/A   Partly Cloudy
4:00 AM 84.2 °F 88.4 °F 69.8 °F 62% 29.77 in 6.2 mi East 13.8 mph - N/A   Partly Cloudy
4:30 AM 84.2 °F 86.6 °F 66.2 °F 55% 29.77 in 6.2 mi East 13.8 mph - N/A   Partly Cloudy
5:00 AM 84.2 °F 86.6 °F 66.2 °F 55% 29.77 in 6.2 mi East 15.0 mph - N/A   Partly Cloudy
5:30 AM 84.2 °F 86.6 °F 66.2 °F 55% 29.77 in 6.2 mi East 19.6 mph - N/A   Partly Cloudy
6:00 AM 84.2 °F 86.6 °F 66.2 °F 55% 29.77 in 6.2 mi East 17.3 mph - N/A   Partly Cloudy
6:30 AM 84.2 °F 86.6 °F 66.2 °F 55% 29.77 in 6.2 mi East 18.4 mph - N/A   Partly Cloudy
7:00 AM 84.2 °F 85.6 °F 64.4 °F 51% 29.77 in 6.2 mi East 17.3 mph - N/A   Partly Cloudy
7:30 AM 86.0 °F 87.3 °F 64.4 °F 48% 29.80 in 6.2 mi East 17.3 mph - N/A   Partly Cloudy
8:00 AM 85 °F - 64 °F 39% 29.81 in 14 mi East 17.9 mph - -   Clear
8:00 AM 84.2 °F 85.6 °F 64.4 °F 51% 29.80 in - East 18.4 mph - N/A   Clear
8:30 AM 87.8 °F 88.5 °F 62.6 °F 43% 29.80 in - East 16.1 mph - N/A   Clear
9:00 AM 87.8 °F 88.5 °F 62.6 °F 43% 29.80 in - East 13.8 mph - N/A   Clear
9:30 AM 87.8 °F 89.4 °F 64.4 °F 46% 29.80 in - ENE 12.7 mph - N/A   Clear
10:00 AM 87.8 °F 89.4 °F 64.4 °F 46% 29.80 in - ENE 15.0 mph - N/A   Clear
10:30 AM 89.6 °F 93.4 °F 68.0 °F 49% 29.80 in - East 10.4 mph - N/A   Clear
11:00 AM 89.6 °F 93.4 °F 68.0 °F 49% 29.80 in - ENE 12.7 mph - N/A   Clear
11:30 AM 89.6 °F 92.2 °F 66.2 °F 46% 29.80 in - ESE 15.0 mph - N/A   Clear
12:00 PM 91.4 °F 95.4 °F 68.0 °F 46% 29.77 in - ESE 13.8 mph - N/A   Clear
12:30 PM 91.4 °F 95.4 °F 68.0 °F 46% 29.77 in - ENE 9.2 mph - N/A   Clear
1:00 PM 91.4 °F 95.4 °F 68.0 °F 46% 29.77 in - ESE 11.5 mph - N/A   Clear
1:30 PM 91.4 °F 95.4 °F 68.0 °F 46% 29.77 in - ESE 12.7 mph - N/A   Clear
2:00 PM 91.4 °F 95.4 °F 68.0 °F 46% 29.74 in 6.2 mi ESE 15.0 mph - N/A   Partly Cloudy
2:30 PM 89.6 °F 94.7 °F 69.8 °F 52% 29.74 in 6.2 mi SE 13.8 mph - N/A   Partly Cloudy
3:00 PM 91.4 °F 96.8 °F 69.8 °F 49% 29.74 in 6.2 mi SE 17.3 mph - N/A   Partly Cloudy
3:30 PM 89.6 °F 92.2 °F 66.2 °F 46% 29.71 in 6.2 mi ESE 17.3 mph - N/A   Partly Cloudy
4:00 PM 89.6 °F 89.5 °F 60.8 °F 38% 29.71 in 6.2 mi SE 13.8 mph - N/A   Partly Cloudy
4:30 PM 89.6 °F 89.5 °F 60.8 °F 38% 29.74 in 6.2 mi SE 13.8 mph - N/A   Partly Cloudy
5:00 PM 88 °F - 64 °F 34% 29.74 in 16 mi SE 11.2 mph - -   Scattered Clouds
5:00 PM 87.8 °F 89.4 °F 64.4 °F 46% 29.74 in 6.2 mi SE 11.5 mph - N/A   Partly Cloudy
5:30 PM 86.0 °F 88.2 °F 66.2 °F 51% 29.71 in 6.2 mi East 10.4 mph - N/A   Partly Cloudy
6:00 PM 86.0 °F 88.2 °F 66.2 °F 51% 29.74 in 6.2 mi ESE 15.0 mph - N/A   Partly Cloudy
6:30 PM 86.0 °F 88.2 °F 66.2 °F 51% 29.74 in 6.2 mi ESE 12.7 mph - N/A   Partly Cloudy
7:00 PM 86.0 °F 88.2 °F 66.2 °F 51% 29.74 in 6.2 mi East 12.7 mph - N/A   Partly Cloudy
7:30 PM 86.0 °F 88.2 °F 66.2 °F 51% 29.74 in 6.2 mi ESE 12.7 mph - N/A   Partly Cloudy
8:00 PM 86.0 °F 89.4 °F 68.0 °F 55% 29.77 in 6.2 mi East 10.4 mph - N/A   Partly Cloudy
8:30 PM 86.0 °F 90.4 °F 69.8 °F 58% 29.77 in 6.2 mi ESE 10.4 mph - N/A   Partly Cloudy
9:00 PM 86.0 °F 91.8 °F 71.6 °F 62% 29.77 in 6.2 mi ESE 10.4 mph - N/A   Partly Cloudy
9:30 PM 86.0 °F 90.4 °F 69.8 °F 58% 29.80 in 6.2 mi East 11.5 mph - N/A   Partly Cloudy
10:00 PM 86.0 °F 90.4 °F 69.8 °F 58% 29.80 in 6.2 mi East 10.4 mph - N/A   Partly Cloudy
10:30 PM 86.0 °F 90.4 °F 69.8 °F 58% 29.80 in 6.2 mi East 6.9 mph - N/A   Partly Cloudy
11:00 PM 86.0 °F 90.4 °F 69.8 °F 58% 29.80 in 6.2 mi East 6.9 mph - N/A   Scattered Clouds
11:30 PM 86.0 °F 91.8 °F 71.6 °F 62% 29.80 in 6.2 mi ESE 9.2 mph - N/A   Partly Cloudy